Weather History for KHJH - January, 2013

Change the Weather History Date:

Thursday, January 3, 2013

  Actual Average Record
Temperature  
Mean Temperature 20 °F -  
Max Temperature 31 °F 31 °F 61 °F (1964)
Min Temperature 9 °F 12 °F -10 °F (1968)
Degree Days  
Heating Degree Days 45    
Moisture  
Dew Point 20 °F    
Average Humidity 85    
Maximum Humidity 96    
Minimum Humidity 75    
Precipitation  
Precipitation 0.00 in - - ()
Sea Level Pressure  
Sea Level Pressure 30.35 in    
Wind  
Wind Speed 5 mph (NW)    
Max Wind Speed 10 mph    
Max Gust Speed 16 mph    
Visibility 10 miles    
Events      
Averages and records for this station are not official NWS values.
T = Trace of Precipitation, MM = Missing Value Source: NWS Daily Summary

Daily Weather History Graph

Daily Weather History Graph

Search for Another Location

Airport or City:

Trip Planner

Search our weather history database for the weather conditions in past years. The results will help you decide how hot, cold, wet, or windy it might be!

Date:

Astronomy

Jan. 03, 2013 Rise Set
Actual Time 7:52 AM CST 5:17 PM CST
Civil Twilight 7:22 AM CST 5:47 PM CST
Nautical Twilight 6:48 AM CST 6:21 PM CST
Astronomical Twilight 6:15 AM CST 6:54 PM CST
Moon 11:54 PM CST (1/3) 11:04 AM CST (1/3)
Length of Visible Light 10h 25m
Length of Day
9h 24m
Waning Gibbous, 65% of the Moon is Illuminated
Jan 3
Waning Gibbous
Jan 4
Last Quarter
Jan 11
New
Jan 18
First Quarter
Jan 26
Full

Hourly Weather History & Observations

Time (CST) Temp. Windchill Dew Point Humidity Pressure Visibility Wind Dir Wind Speed Gust Speed Precip Events Conditions
12:15 AM 30.2 °F 25.4 °F 24.6 °F 80% 30.26 in 10.0 mi WNW 4.6 mph - N/A   Overcast
12:35 AM 30.7 °F 24.1 °F 24.4 °F 77% 30.26 in 10.0 mi NW 6.9 mph - N/A   Overcast
12:55 AM 29.1 °F 22.1 °F 23.7 °F 80% 30.26 in 10.0 mi NW 6.9 mph - N/A   Overcast
1:15 AM 28.2 °F 20.2 °F 23.0 °F 81% 30.27 in 10.0 mi NW 8.1 mph - N/A   Mostly Cloudy
1:55 AM 25.5 °F 17.8 °F 20.8 °F 82% 30.28 in 10.0 mi WNW 6.9 mph - N/A   Scattered Clouds
2:15 AM 24.6 °F 15.8 °F 20.3 °F 84% 30.29 in 10.0 mi NW 8.1 mph - N/A   Mostly Cloudy
2:35 AM 23.0 °F 14.7 °F 19.2 °F 85% 30.29 in 10.0 mi NW 6.9 mph - N/A   Scattered Clouds
2:55 AM 24.6 °F 16.7 °F 20.3 °F 84% 30.30 in 10.0 mi NW 6.9 mph - N/A   Mostly Cloudy
3:15 AM 25.3 °F 16.7 °F 21.2 °F 84% 30.31 in 10.0 mi NW 8.1 mph - N/A   Overcast
3:35 AM 25.5 °F 16.2 °F 20.7 °F 82% 30.31 in 10.0 mi NW 9.2 mph - N/A   Mostly Cloudy
3:55 AM 24.1 °F 15.2 °F 19.2 °F 82% 30.32 in 10.0 mi NW 8.1 mph - N/A   Scattered Clouds
4:15 AM 22.1 °F 12.0 °F 17.8 °F 83% 30.32 in 10.0 mi NW 9.2 mph - N/A   Scattered Clouds
4:35 AM 21.6 °F 10.6 °F 17.1 °F 83% 30.32 in 10.0 mi NW 10.4 mph - N/A   Clear
4:55 AM 21.0 °F 12.4 °F 16.5 °F 83% 30.32 in 10.0 mi NW 6.9 mph - N/A   Clear
5:15 AM 20.3 °F 10.6 °F 16.3 °F 85% 30.32 in 10.0 mi NW 8.1 mph - N/A   Clear
5:35 AM 20.7 °F 11.9 °F 16.3 °F 83% 30.32 in 10.0 mi WNW 6.9 mph - N/A   Clear
5:55 AM 20.1 °F 12.3 °F 16.0 °F 84% 30.33 in 10.0 mi WNW 5.8 mph - N/A   Scattered Clouds
6:15 AM 20.5 °F 15.6 °F 16.5 °F 85% 30.33 in 10.0 mi WNW 3.5 mph - N/A   Overcast
6:35 AM 24.1 °F 18.2 °F 19.9 °F 84% 30.34 in 10.0 mi NW 4.6 mph - N/A   Overcast
6:55 AM 25.2 °F 18.3 °F 21.0 °F 84% 30.34 in 10.0 mi NW 5.8 mph - N/A   Overcast
7:15 AM 25.7 °F 20.1 °F 21.6 °F 84% 30.35 in 10.0 mi NW 4.6 mph - N/A   Overcast
7:35 AM 26.1 °F 20.5 °F 21.9 °F 84% 30.35 in 10.0 mi West 4.6 mph - N/A   Overcast
7:55 AM 26.4 °F 20.9 °F 22.5 °F 85% 30.36 in 10.0 mi West 4.6 mph - N/A   Overcast
8:15 AM 26.6 °F 21.2 °F 22.8 °F 86% 30.36 in 10.0 mi WNW 4.6 mph - N/A   Overcast
8:35 AM 27.0 °F 21.6 °F 23.4 °F 86% 30.36 in 10.0 mi NW 4.6 mph - N/A   Overcast
8:55 AM 27.1 °F 23.2 °F 23.7 °F 87% 30.37 in 10.0 mi NW 3.5 mph - N/A   Overcast
9:35 AM 28.0 °F 22.8 °F 24.6 °F 87% 30.39 in 10.0 mi NW 4.6 mph - N/A   Overcast
9:55 AM 28.4 °F 22.2 °F 25.2 °F 88% 30.40 in 10.0 mi NW 5.8 mph - N/A   Overcast
10:15 AM 29.1 °F 22.1 °F 25.5 °F 86% 30.40 in 10.0 mi NW 6.9 mph - N/A   Overcast
10:35 AM 29.7 °F 22.0 °F 25.7 °F 85% 30.41 in 10.0 mi NW 8.1 mph - N/A   Overcast
10:55 AM 30.2 °F 22.6 °F 25.5 °F 83% 30.41 in 10.0 mi NW 8.1 mph - N/A   Overcast
11:15 AM 30.2 °F 21.3 °F 25.2 °F 82% 30.41 in 10.0 mi NNW 10.4 mph 16.1 mph N/A   Overcast
11:35 AM 30.0 °F 22.4 °F 24.4 °F 80% 30.40 in 10.0 mi NNW 8.1 mph - N/A   Overcast
11:55 AM 30.0 °F 23.2 °F 24.3 °F 79% 30.40 in 10.0 mi NNW 6.9 mph - N/A   Overcast
12:15 PM 30.2 °F 25.4 °F 24.4 °F 79% 30.39 in 10.0 mi NNW 4.6 mph - N/A   Overcast
12:35 PM 30.4 °F 26.9 °F 24.6 °F 79% 30.38 in 10.0 mi North 3.5 mph - N/A   Overcast
12:55 PM 30.7 °F 26.0 °F 24.8 °F 79% 30.38 in 10.0 mi NNW 4.6 mph - N/A   Overcast
1:15 PM 31.1 °F 27.7 °F 24.6 °F 77% 30.37 in 10.0 mi WNW 3.5 mph - N/A   Overcast
1:35 PM 30.7 °F 24.1 °F 23.7 °F 75% 30.37 in 10.0 mi NNW 6.9 mph - N/A   Overcast
1:55 PM 30.4 °F 24.5 °F 25.2 °F 81% 30.36 in 10.0 mi NE 5.8 mph - N/A   Overcast
2:15 PM 30.0 °F 26.5 °F 25.0 °F 82% 30.36 in 10.0 mi ENE 3.5 mph - N/A   Overcast
2:35 PM 29.8 °F - 24.8 °F 81% 30.36 in 10.0 mi Calm Calm - N/A   Overcast
2:55 PM 29.7 °F - 24.4 °F 81% 30.36 in 10.0 mi Calm Calm - N/A   Mostly Cloudy
3:15 PM 29.3 °F - 24.3 °F 81% 30.36 in 10.0 mi Calm Calm - N/A   Mostly Cloudy
3:35 PM 29.7 °F - 24.1 °F 80% 30.36 in 10.0 mi Calm Calm - N/A   Mostly Cloudy
3:55 PM 28.9 °F 25.2 °F 23.9 °F 81% 30.36 in 10.0 mi NE 3.5 mph - N/A   Overcast
4:15 PM 28.4 °F - 23.4 °F 81% 30.36 in 10.0 mi Calm Calm - N/A   Scattered Clouds
4:35 PM 27.5 °F - 23.0 °F 83% 30.36 in 10.0 mi Calm Calm - N/A   Clear
4:55 PM 27.0 °F - 22.8 °F 84% 30.36 in 10.0 mi Calm Calm - N/A   Clear
5:15 PM 25.7 °F - 21.7 °F 85% 30.36 in 10.0 mi Calm Calm - N/A   Clear
5:35 PM 22.8 °F - 20.1 °F 89% 30.36 in 10.0 mi Calm Calm - N/A   Clear
5:55 PM 21.6 °F - 18.7 °F 89% 30.36 in 10.0 mi Calm Calm - N/A   Clear
6:15 PM 19.4 °F - 17.4 °F 92% 30.36 in 10.0 mi Calm Calm - N/A   Clear
6:35 PM 18.1 °F - 16.2 °F 92% 30.36 in 10.0 mi Calm Calm - N/A   Clear
6:55 PM 16.5 °F - 15.1 °F 94% 30.37 in 7.0 mi Calm Calm - N/A   Clear
7:15 PM 15.8 °F - 14.4 °F 94% 30.37 in 4.0 mi Calm Calm - N/A   Clear
7:35 PM 15.1 °F - 13.5 °F 93% 30.37 in 7.0 mi Calm Calm - N/A   Clear
7:55 PM 14.0 °F - 12.2 °F 93% 30.37 in 10.0 mi Calm Calm - N/A   Clear
8:15 PM 13.8 °F - 11.8 °F 92% 30.37 in 10.0 mi Calm Calm - N/A   Clear
8:35 PM 12.6 °F - 10.4 °F 91% 30.37 in 7.0 mi Calm Calm - N/A   Clear
8:55 PM 10.4 °F - 8.2 °F 91% 30.36 in 5.0 mi Calm Calm - N/A   Clear
9:15 PM 10.0 °F - 7.7 °F 90% 30.35 in 7.0 mi Calm Calm - N/A   Clear
9:35 PM 10.2 °F - 8.1 °F 91% 30.35 in 7.0 mi Calm Calm - N/A   Clear
9:55 PM 9.7 °F - 7.3 °F 90% 30.34 in 7.0 mi Calm Calm - N/A   Clear
10:15 PM 9.1 °F - 6.8 °F 90% 30.34 in 10.0 mi Calm Calm - N/A   Clear
10:35 PM 18.7 °F 8.6 °F 17.6 °F 96% 30.34 in 10.0 mi SW 8.1 mph - N/A   Clear
10:55 PM 18.3 °F 9.1 °F 16.5 °F 93% 30.34 in 10.0 mi WSW 6.9 mph - N/A   Clear
11:15 PM 18.1 °F 10.0 °F 16.7 °F 94% 30.34 in 10.0 mi WSW 5.8 mph - N/A   Clear
11:35 PM 17.6 °F 10.7 °F 15.8 °F 93% 30.33 in 10.0 mi WSW 4.6 mph - N/A   Clear
11:55 PM 17.2 °F 8.9 °F 15.6 °F 93% 30.33 in 10.0 mi WSW 5.8 mph - N/A   Clear